"TOA5","AWS1","CR1000","7964","CR1000.Std.14","CPU:AWS1_114.CR1","64363","TBL110"
"TIMESTAMP","RECORD","Wind_spd_WVc(1)","Wind_spd_WVc(2)","Air_Temp_Avg","Humidity_Avg","SW_upper_Wm2_Avg","Rain_Tot","Press_Avg","Issui_Tot","Depth_cm","SR50A_Raw","Quality","Ground_Temp_Avg(1)","Ground_Temp_Avg(2)","SW_lower_Wm2_Avg","Albedo_Avg","SWC_per(1)","SWC_per(2)","Period(1)","Period(2)"
"TS","RN","","","","","","","","","","","","","","","","","","",""
"","","WVc","WVc","Avg","Avg","Avg","Tot","Avg","Tot","Smp","Smp","Smp","Avg","Avg","Avg","Avg","Smp","Smp","Smp","Smp"
"2016-10-09 00:00:00",256669,0.472,129.3,15.74,99.2,0,0,862.7771,0,-0.859,3.101,200,16.75,17.01,0.4547453,0,50.22,57.1,33.35,35.01
"2016-10-09 00:10:00",256670,0.955,130.6,15.73,100,0,0,862.6465,0,-1.595,3.107,199,16.75,16.99,0.4168499,0,50.22,57.16,33.35,35.02
"2016-10-09 00:20:00",256671,0.604,78.5,15.82,100,0,0,862.5517,0,-0.234,3.094,210,16.75,16.99,0.3713754,0,50.22,57.16,33.35,35.02
"2016-10-09 00:30:00",256672,0.887,118.7,15.75,100,0,0,862.2863,0,-0.495,3.097,202,16.76,17.01,0.2311622,0,50.22,57.16,33.35,35.02
"2016-10-09 00:40:00",256673,0.662,131.7,15.8,100,0,0.5,862.1073,0,-0.235,3.094,212,16.76,16.99,0.4547454,0,50.22,57.1,33.35,35.01
"2016-10-09 00:50:00",256674,0.542,79.84,15.8,100,0,0,862.002,0,-0.131,3.093,214,16.76,16.99,0.4471663,0,50.22,57.16,33.35,35.02
"2016-10-09 01:00:00",256675,0.641,94.6,15.82,99.8,0,0,861.863,0,-0.955,3.101,208,16.76,17.01,0.5153781,0,50.22,57.16,33.35,35.02
"2016-10-09 01:10:00",256676,0.776,81.5,15.74,99.3,0,0,861.7787,0,-3.738,3.129,188,16.76,17,0.473693,0,50.22,57.16,33.35,35.02
"2016-10-09 01:20:00",256677,0.747,122.7,15.65,100,0,0.5,861.6249,0,-1.143,3.104,219,16.76,17.01,0.3448485,0,50.22,57.16,33.35,35.02
"2016-10-09 01:30:00",256678,1.003,75.02,15.58,100,0,0,861.6017,0,-1.942,3.112,198,16.75,16.99,0.4206394,0,50.22,57.16,33.35,35.02
"2016-10-09 01:40:00",256679,0.696,18.4,15.61,100,0,0,861.4249,0,-2.866,3.121,190,16.76,17,0.3941126,0,50.22,57.16,33.35,35.02
"2016-10-09 01:50:00",256680,0.842,98.7,15.6,100,0,0,861.3407,0,-2.353,3.116,201,16.75,16.99,0.4699035,0,50.28,57.16,33.37,35.02
"2016-10-09 02:00:00",256681,0.663,38.54,15.53,100,0,0,861.3007,0,-2.921,3.122,181,16.71,16.99,0.341059,0,50.28,57.16,33.37,35.02
"2016-10-09 02:10:00",256682,0.69,61.39,15.47,100,0,0,861.1237,0,-2.462,3.118,196,16.71,16.98,0.2463204,0,50.33,57.16,33.38,35.02
"2016-10-09 02:20:00",256683,0.936,59.77,15.41,100,0,0,860.9825,0,-1.869,3.112,188,16.72,16.98,0.299374,0,50.33,57.16,33.38,35.02
"2016-10-09 02:30:00",256684,0.688,3.248,15.42,100,0,0,860.791,0,-2.051,3.114,192,16.72,17,0.4509558,0,50.33,57.16,33.38,35.02
"2016-10-09 02:40:00",256685,0.95,97.2,15.36,100,0,0,860.732,0,-1.694,3.111,211,16.73,17,0.2804263,0,50.39,57.22,33.39,35.03
"2016-10-09 02:50:00",256686,0.714,59.78,15.19,100,0,0.5,860.4434,0,-2.009,3.115,195,16.75,16.98,0.2311622,0,50.39,57.22,33.39,35.03
"2016-10-09 03:00:00",256687,0.745,122.9,15.09,99.6,0,0,860.1085,0,-2.166,3.117,187,16.75,16.98,0.4206394,0,50.44,57.22,33.41,35.03
"2016-10-09 03:10:00",256688,0.571,168.7,15.03,99,0,0,859.8389,0,-2.063,3.116,196,16.75,17,0.4395871,0,50.39,57.22,33.39,35.03
"2016-10-09 03:20:00",256689,0.394,179.7,14.99,99.9,0,0.5,859.6556,0,-0.111,3.097,294,16.75,17.01,0.4850617,0,50.44,57.22,33.41,35.03
"2016-10-09 03:30:00",256690,0.941,71.23,15.01,100,0,1,859.5904,0,-2.07,3.117,209,16.75,17,0.3562172,0,50.5,57.27,33.42,35.05
"2016-10-09 03:40:00",256691,1.524,105.9,15.06,100,0,1,859.7252,0,-1.55,3.111,217,16.75,17,0.208425,0,50.66,57.27,33.46,35.05
"2016-10-09 03:50:00",256692,0.711,43.99,15.04,100,0,1.5,859.7842,0,-1.857,3.114,200,16.75,17.01,0.1629504,0,50.88,57.33,33.52,35.06
"2016-10-09 04:00:00",256693,0.372,9.37,14.91,100,0,3,859.9442,0,-2.915,3.125,208,16.72,17.01,0.07579089,0,51.88,57.33,33.76,35.06
"2016-10-09 04:10:00",256694,0.184,142.7,14.91,100,0,5,860.0663,0,-3.041,3.126,213,16.68,17.01,0.07200135,0,53.28,57.62,34.1,35.13
"2016-10-09 04:20:00",256695,0.484,227.5,14.74,100,0.003930287,5,860.3592,0,-3.319,3.132,214,16.56,17.01,0.07958043,0.016,53.61,62.12,34.18,36.16
"2016-10-09 04:30:00",256696,0.675,90,14.18,100,0,2.5,860.5066,0,-3.945,3.14,191,16.47,17.01,0.01894772,0,53.73,64.6,34.21,36.72
"2016-10-09 04:40:00",256697,0.537,288.6,13.86,100,0,3.5,860.9573,0,-1.852,3.121,219,16.45,17.02,0.01515818,0,53.9,64.85,34.25,36.77
"2016-10-09 04:50:00",256698,0.387,160.4,13.61,100,0,2.5,861.1721,0,-2.424,3.128,194,16.34,16.99,0.01136863,0,54.07,64.91,34.29,36.78
"2016-10-09 05:00:00",256699,1.007,291.8,13.45,100,0,2,861.1742,0,-2.327,3.128,204,16.31,16.97,0.02273727,0,54.12,64.91,34.3,36.78
"2016-10-09 05:10:00",256700,0.585,359.5,13.37,100,0,1,861.1911,0,-1.273,3.117,208,16.27,16.98,0.174319,0,53.95,64.97,34.26,36.8
"2016-10-09 05:20:00",256701,0.858,171.1,13.45,100,0,1,861.3175,0,-1.508,3.12,205,16.24,16.97,0.2538995,0,53.84,64.97,34.23,36.8
"2016-10-09 05:30:00",256702,0.749,262.3,13.3,100,0,1,861.1785,0,-3.175,3.137,198,16.23,16.93,0.1629504,0,53.78,64.97,34.22,36.8
"2016-10-09 05:40:00",256703,0.89,169.1,13.17,100,0,0.5,861.1132,0,-1.874,3.125,223,16.25,16.93,0.2311622,0,53.67,64.97,34.19,36.8
"2016-10-09 05:50:00",256704,1.149,181.1,12.98,100,0,0.5,860.9446,0,-2.084,3.128,205,16.2,16.93,0.1591609,0,53.56,64.97,34.17,36.8
"2016-10-09 06:00:00",256705,0.955,38.69,13.05,97.7,0.08253602,1,861.0142,0,-1.868,3.124,288,16.21,16.95,0.473693,0.281,53.5,64.91,34.15,36.78
"2016-10-09 06:10:00",256706,0.771,24.31,13.25,91.9,0.6642185,0.5,861.0247,0,-2.585,3.131,190,16.13,16.97,0.7616985,1.262,53.5,64.91,34.15,36.78
"2016-10-09 06:20:00",256707,0.739,26.31,13.17,92.1,1.733257,0.5,861.0794,0,-4.793,3.154,206,16.13,16.96,0.8374893,0.497,53.45,64.91,34.14,36.78
"2016-10-09 06:30:00",256708,0.487,73.94,12.92,95.7,3.254277,1,861.1469,0,-1.47,3.122,202,16.06,16.9,0.8715953,0.273,53.45,64.91,34.14,36.78
"2016-10-09 06:40:00",256709,0.509,89,12.88,96.7,4.162174,0.5,861.2648,0,-3.131,3.138,206,16.08,16.9,0.9094906,0.219,53.45,64.97,34.14,36.8
"2016-10-09 06:50:00",256710,0.154,182.7,12.87,97.1,4.92858,1,861.2227,0,-2.186,3.129,198,16.03,16.92,0.939807,0.192,53.45,64.91,34.14,36.78
"2016-10-09 07:00:00",256711,0.067,101.3,12.8,98.2,8.22216,1,861.3407,0,-2.083,3.128,197,16.03,16.9,1.409711,0.176,53.5,64.91,34.15,36.78
"2016-10-09 07:10:00",256712,0.348,56.74,12.94,94.5,12.60836,0.5,861.3407,0,-2.229,3.128,202,15.97,16.91,2.190357,0.173,53.5,64.97,34.15,36.8
"2016-10-09 07:20:00",256713,0.319,169.1,13.1,91.5,21.18818,0,861.328,0,-2.873,3.135,191,15.96,16.88,3.471223,0.166,53.5,64.97,34.15,36.8
"2016-10-09 07:30:00",256714,0.306,113.4,13.03,93,24.2145,0,861.5976,0,-3.151,3.137,186,15.91,16.86,3.816071,0.158,53.33,64.91,34.11,36.78
"2016-10-09 07:40:00",256715,0.259,121.7,13.28,89.8,52.51257,0,861.5091,0,-2.789,3.133,197,15.88,16.85,7.472982,0.143,53.28,64.91,34.1,36.78
"2016-10-09 07:50:00",256716,0.192,8.67,13.16,93.3,53.81349,0,861.3448,0,-0.447,3.108,215,15.88,16.83,7.272136,0.134,53.16,64.91,34.07,36.78
"2016-10-09 08:00:00",256717,0.336,338.2,13.65,86.9,52.94883,0,861.6461,0,-1.086,3.114,228,15.89,16.79,7.711723,0.146,53.11,64.79,34.06,36.76
"2016-10-09 08:10:00",256718,0.169,332.6,13.2,94.4,39.47187,0,861.9009,0,-2.386,3.13,201,15.92,16.78,5.218203,0.132,53,64.12,34.03,36.61
"2016-10-09 08:20:00",256719,0.25,342.8,13.02,99.8,45.76426,0.5,862.1178,0,-3.668,3.143,172,15.92,16.8,5.616105,0.123,52.94,63.75,34.02,36.53
"2016-10-09 08:30:00",256720,0.383,328.7,12.92,100,51.21164,0,861.9514,0,-3.131,3.138,188,15.93,16.82,6.214853,0.122,52.88,63.45,34,36.46
"2016-10-09 08:40:00",256721,0.67,318.9,12.56,100,33.18341,0.5,862.4254,0,-1.647,3.128,251,15.92,16.82,4.009338,0.121,52.94,63.08,34.02,36.38
"2016-10-09 08:50:00",256722,1.755,328.7,11.68,100,98.88995,0.5,862.8698,0,-1.617,3.132,216,15.87,16.76,12.31223,0.124,52.94,62.9,34.02,36.34
"2016-10-09 09:00:00",256723,1.411,316.8,11.2,100,147.0006,0,863.1815,0,-1.952,3.136,198,15.87,16.79,18.71277,0.127,52.94,62.78,34.02,36.31
"2016-10-09 09:10:00",256724,1.272,292,11.32,100,274.9118,0,863.2089,0,0.123,3.114,208,15.87,16.8,35.42845,0.129,52.94,62.72,34.02,36.3
"2016-10-09 09:20:00",256725,0.954,307.1,11.53,99,164.0777,0,863.4637,0,0.585,3.109,310,15.83,16.8,20.81597,0.127,52.88,62.66,34,36.28
"2016-10-09 09:30:00",256726,0.826,264.8,11.33,98.2,112.9368,0,863.6891,0,-0.758,3.125,237,15.83,16.79,14.33206,0.127,52.88,62.6,34,36.27
"2016-10-09 09:40:00",256727,0.934,286.3,11.03,99.9,145.5808,0,863.7438,0,-2.136,3.138,203,15.82,16.77,19.31191,0.133,52.83,62.54,33.99,36.25
"2016-10-09 09:50:00",256728,1.167,298.3,11.13,100,159.8127,0,863.8871,0,-2.08,3.137,221,15.84,16.75,21.45306,0.134,52.72,62.42,33.96,36.23
"2016-10-09 10:00:00",256729,0.976,283,11.16,99.7,116.2397,0,863.9902,0,-1.576,3.133,218,15.87,16.76,15.32891,0.132,52.66,62.42,33.95,36.23
"2016-10-09 10:10:00",256730,0.364,57.05,11.14,99.8,51.09926,0,864.0114,0,-1.988,3.137,208,15.88,16.75,6.499272,0.127,52.66,60.68,33.95,35.83
"2016-10-09 10:20:00",256731,0.491,14.65,10.99,100,58.04167,0,864.1208,0,-1.732,3.134,214,15.89,16.72,7.617393,0.131,52.6,60.62,33.94,35.82
"2016-10-09 10:30:00",256732,0.788,299.6,10.96,100,128.4805,0,864.0703,0,-2.175,3.14,216,15.93,16.7,17.13729,0.134,52.49,60.5,33.91,35.79
"2016-10-09 10:40:00",256733,0.605,319.6,11.02,99.3,134.0479,0,864.0724,0,-2.554,3.143,195,15.95,16.69,18.47532,0.138,52.55,60.38,33.92,35.77
"2016-10-09 10:50:00",256734,1.636,290.9,10.95,95.1,194.0173,0,864.0555,0,-1.866,3.137,216,15.94,16.69,26.44866,0.136,52.44,60.33,33.89,35.75
"2016-10-09 11:00:00",256735,1.398,299,10.75,96.2,86.25078,0,864.0408,0,-1.796,3.137,207,15.94,16.71,11.88464,0.137,52.44,60.27,33.89,35.74
"2016-10-09 11:10:00",256736,0.473,268.5,10.69,98.8,122.0299,0,864.1145,0,-1.846,3.137,214,15.95,16.73,17.47126,0.143,52.38,60.21,33.88,35.73
"2016-10-09 11:20:00",256737,0.456,149.1,10.96,95.8,243.0971,0,863.9965,0,-1.35,3.13,237,15.91,16.72,34.27878,0.141,52.32,60.15,33.87,35.71
"2016-10-09 11:30:00",256738,0.786,277.8,11.21,92.3,260.2652,0,863.9291,0,-3.213,3.148,207,15.91,16.7,36.32575,0.14,52.32,60.03,33.87,35.69
"2016-10-09 11:40:00",256739,0.394,222,11.28,91,149.9586,0,863.9902,0,-1.217,3.128,230,15.95,16.71,21.01067,0.14,52.27,59.97,33.85,35.67
"2016-10-09 11:50:00",256740,0.47,258,11.27,91.8,203.5386,0,863.9271,0,-1.37,3.13,268,16,16.7,29.14664,0.143,52.1,59.79,33.81,35.63
"2016-10-09 12:00:00",256741,0.842,273.4,11.24,89.6,228.0369,0,863.8682,0,-1.979,3.136,224,15.98,16.7,32.91679,0.144,51.99,59.73,33.79,35.62
"2016-10-09 12:10:00",256742,0.801,233.1,11.35,90.6,301.6464,0,863.8618,0,-2.072,3.135,200,15.98,16.7,44.61121,0.148,51.99,59.67,33.79,35.6
"2016-10-09 12:20:00",256743,0.737,231.7,11.62,87.5,350.2097,0,863.8682,0,-1.41,3.129,193,16,16.69,52.00852,0.148,51.94,59.61,33.77,35.59
"2016-10-09 12:30:00",256744,0.414,195.9,11.81,84.7,399.6657,0,863.7649,0,-1.029,3.121,202,16.01,16.67,60.04195,0.15,51.94,59.56,33.77,35.58
"2016-10-09 12:40:00",256745,0.681,255.9,11.96,85.4,260.3035,0,863.7902,0,-1.248,3.126,202,16.03,16.67,38.04332,0.146,51.88,59.5,33.76,35.56
"2016-10-09 12:50:00",256746,0.708,260.3,11.61,85.1,170.0046,0,863.8702,0,-1.156,3.127,206,16.06,16.65,25.58701,0.15,51.77,59.5,33.73,35.56
"2016-10-09 13:00:00",256747,0.866,270.8,11.49,82.9,329.5113,0,863.9397,0,-1.89,3.133,225,16.06,16.61,50.76095,0.154,51.77,59.38,33.73,35.54
"2016-10-09 13:10:00",256748,1.04,215.4,11.7,81.4,373.3851,0,863.8976,0,-1.987,3.133,193,16.06,16.63,57.03265,0.153,51.71,59.38,33.72,35.54
"2016-10-09 13:20:00",256749,1.281,259.3,11.69,79.72,320.8922,0,863.9545,0,-1.739,3.132,198,16.07,16.61,48.54028,0.151,51.66,59.38,33.7,35.54
"2016-10-09 13:30:00",256750,0.986,256.8,11.77,79.72,475.5687,0,864.0914,0,-2.192,3.135,207,16.12,16.61,68.13223,0.143,51.71,59.32,33.72,35.52
"2016-10-09 13:40:00",256751,0.949,255.3,11.84,77.71,385.0345,0,863.9018,0,-1.398,3.127,206,16.18,16.61,52.6974,0.137,51.66,59.32,33.7,35.52
"2016-10-09 13:50:00",256752,0.477,209.5,11.88,77.12,308.2328,0,863.9208,0,-1.9,3.13,202,16.17,16.59,41.98058,0.138,51.6,59.26,33.69,35.51
"2016-10-09 14:00:00",256753,0.664,222.3,11.99,78.52,208.3445,0,864.2936,0,-1.248,3.126,199,16.19,16.59,31.09321,0.149,51.6,59.26,33.69,35.51
"2016-10-09 14:10:00",256754,0.673,219.7,11.85,79.54,229.1279,0,864.3737,0,-1.039,3.123,205,16.23,16.59,35.23518,0.153,51.6,59.26,33.69,35.51
"2016-10-09 14:20:00",256755,0.859,237.8,11.73,75.95,206.4265,0,864.2809,0,-0.743,3.122,206,16.22,16.59,30.60057,0.148,51.55,59.2,33.68,35.5
"2016-10-09 14:30:00",256756,1.26,264.5,11.44,74.37,183.9571,0,864.3588,0,-1.389,3.13,189,16.2,16.56,27.2544,0.148,51.55,59.2,33.68,35.5
"2016-10-09 14:40:00",256757,0.81,257.5,11.39,75.37,169.6823,0,864.361,0,-1.155,3.127,197,16.27,16.54,24.95415,0.146,51.49,59.14,33.66,35.48
"2016-10-09 14:50:00",256758,0.92,258.5,11.39,75.95,145.57,0,864.302,0,-0.898,3.124,212,16.34,16.57,21.76336,0.149,51.49,59.14,33.66,35.48
"2016-10-09 15:00:00",256759,0.742,214.9,11.65,79.4,118.5335,0,864.1292,0,-1.14,3.124,212,16.32,16.58,17.96623,0.151,51.49,59.14,33.66,35.48
"2016-10-09 15:10:00",256760,0.625,222.2,11.86,79.33,152.4598,0,864.3505,0,-1.627,3.129,191,16.31,16.58,23.38907,0.152,51.44,59.08,33.65,35.47
"2016-10-09 15:20:00",256761,1.033,257,11.61,76.43,81.06609,0,864.3315,0,-1.866,3.133,197,16.35,16.58,11.08442,0.136,51.44,59.08,33.65,35.47
"2016-10-09 15:30:00",256762,0.636,273.6,11.61,77.76,76.65632,0,864.3737,0,-2.225,3.137,195,16.42,16.58,11.00484,0.143,51.44,59.08,33.65,35.47
"2016-10-09 15:40:00",256763,0.595,242.5,11.39,78.36,100.918,0,864.3737,0,-2.079,3.137,196,16.41,16.59,14.99902,0.148,51.44,59.08,33.65,35.47
"2016-10-09 15:50:00",256764,0.87,262.9,11.19,79.67,77.70581,0,864.3484,0,-3.362,3.151,200,16.41,16.59,10.90254,0.135,51.38,59.03,33.64,35.45
"2016-10-09 16:00:00",256765,1.157,265.8,11.05,78.9,70.06629,0,864.3463,0,-1.834,3.136,198,16.41,16.63,9.735488,0.138,51.38,59.03,33.64,35.45
"2016-10-09 16:10:00",256766,0.437,196.1,10.93,83.4,48.36803,0,864.3694,0,-2.049,3.139,199,16.42,16.63,6.222674,0.125,51.38,59.08,33.64,35.47
"2016-10-09 16:20:00",256767,0.484,202.5,10.78,83.9,50.13243,0,864.3694,0,-1.804,3.136,197,16.44,16.65,6.609703,0.131,51.38,59.03,33.64,35.45
"2016-10-09 16:30:00",256768,0.572,258.7,11.12,79.59,44.68035,0,864.3715,0,-1.712,3.134,220,16.48,16.68,6.295663,0.141,51.33,59.03,33.62,35.45
"2016-10-09 16:40:00",256769,0.836,249.3,10.96,83,53.01397,0,864.4431,0,-2.289,3.142,190,16.5,16.7,8.308881,0.15,51.33,59.03,33.62,35.45
"2016-10-09 16:50:00",256770,0.996,2.961,10.55,84.5,25.59336,0,864.7296,0,1.063,3.111,415,16.51,16.7,3.616243,0.139,51.33,59.03,33.62,35.45
"2016-10-09 17:00:00",256771,0.967,2.912,10.16,88.5,16.6301,0,864.9781,0,-3.279,3.156,228,16.52,16.71,2.255453,0.129,51.33,58.97,33.62,35.44
"2016-10-09 17:10:00",256772,1.068,300.2,9.62,89.8,6.40451,0,865.174,0,-2.222,3.148,199,16.51,16.71,0.6141049,0.097,51.33,58.97,33.62,35.44
"2016-10-09 17:20:00",256773,0.617,236.4,9.4,91.5,3.735023,0,865.0834,0,-3.092,3.158,205,16.54,16.72,0.6937193,0.232,51.27,58.97,33.61,35.44
"2016-10-09 17:30:00",256774,0.796,263.2,9.23,92,0.7037598,0,864.8791,0,-2.458,3.152,202,16.54,16.72,0.3411747,0.309,51.27,58.97,33.61,35.44
"2016-10-09 17:40:00",256775,0.461,270.1,9.2,92.8,0,0,864.8602,0,-2.864,3.156,213,16.54,16.72,0.3942469,0,51.21,58.97,33.6,35.44
"2016-10-09 17:50:00",256776,0.645,266.2,9.17,91.3,0,0,864.6874,0,-1.698,3.145,214,16.56,16.72,0.394247,0,51.21,58.91,33.6,35.43
"2016-10-09 18:00:00",256777,0.493,257.8,9.05,90.3,0,0,864.6243,0,-2.054,3.149,195,16.56,16.72,0,0,51.21,58.91,33.6,35.43
"2016-10-09 18:10:00",256778,0.237,191.4,8.9,91,0,0,864.8416,0,-2.086,3.151,201,16.46,16.73,0,0,51.21,58.91,33.6,35.43
"2016-10-09 18:20:00",256779,0.091,155.5,8.62,93.8,0,0,864.8918,0,-2.064,3.152,212,16.46,16.75,0,0,51.21,58.91,33.6,35.43
"2016-10-09 18:30:00",256780,0.138,275.5,8.43,95.7,0,0,864.7645,0,-1.889,3.151,199,16.46,16.75,0.2047052,0,51.21,58.91,33.6,35.43
"2016-10-09 18:40:00",256781,0.165,312.6,8.27,96.8,0,0,864.7626,0,-1.737,3.15,215,16.49,16.76,0.3184303,0,51.16,58.91,33.58,35.43
"2016-10-09 18:50:00",256782,0.235,261.4,8.29,99.9,0,0,864.9561,0,-1.864,3.151,204,16.51,16.75,0.4549004,0,51.16,58.91,33.58,35.43
"2016-10-09 19:00:00",256783,0.348,270,8.22,99.8,0,0,865.1736,0,-2.476,3.158,202,16.39,16.75,0.394247,0,51.16,58.85,33.58,35.41
"2016-10-09 19:10:00",256784,0.269,308.3,8.16,99.9,0,0,865.2687,0,-1.794,3.152,205,16.37,16.75,0.3373844,0,51.16,58.85,33.58,35.41
"2016-10-09 19:20:00",256785,0.359,274.4,8.03,99.9,0,0,865.4008,0,-1.44,3.149,220,16.37,16.75,0.371502,0,51.16,58.85,33.58,35.41
"2016-10-09 19:30:00",256786,0.452,285.5,7.943,95.4,0,0,865.4901,0,-1.163,3.147,250,16.4,16.75,0.253986,0,51.16,58.85,33.58,35.41
"2016-10-09 19:40:00",256787,0.307,209.7,7.79,92.9,0,0,865.4667,0,-2.963,3.165,197,16.38,16.76,0.1099343,0,51.1,58.85,33.57,35.41
"2016-10-09 19:50:00",256788,0.63,272.4,7.596,94.1,0,0,865.4608,0,-1.218,3.149,262,16.36,16.77,0.1213068,0,51.1,58.79,33.57,35.4
"2016-10-09 20:00:00",256789,0.471,238.8,7.544,95.6,0,0,865.4589,0,-2.533,3.161,206,16.33,16.76,0.1819602,0,51.1,58.85,33.57,35.41
"2016-10-09 20:10:00",256790,0.432,228.3,7.568,96,0,0,865.3619,0,-2.714,3.164,205,16.33,16.76,0.4473187,0,51.1,58.73,33.57,35.39
"2016-10-09 20:20:00",256791,0.436,142.5,7.517,95.7,0,0,865.5452,0,-2.512,3.162,207,16.33,16.77,0.3980378,0,51.1,58.73,33.57,35.39
"2016-10-09 20:30:00",256792,0.349,181.4,7.516,96.2,0,0,865.4756,0,-2.662,3.163,205,16.22,16.77,0.3752928,0,51.1,58.67,33.57,35.37
"2016-10-09 20:40:00",256793,0.219,289.8,7.482,96.4,0,0,865.423,0,-2.437,3.162,204,16.2,16.76,0.394247,0,51.1,58.67,33.57,35.37
"2016-10-09 20:50:00",256794,0.255,37.78,7.341,97.3,0,0,865.4756,0,-2.286,3.161,204,16.23,16.77,0.2994761,0,51.05,58.61,33.56,35.36
"2016-10-09 21:00:00",256795,0.25,12.32,7.255,98.5,0,0,865.4778,0,-2.286,3.161,212,16.25,16.78,0.2464044,0,51.05,58.61,33.56,35.36
"2016-10-09 21:10:00",256796,0.13,18.08,7.311,100,0,0,865.5958,0,-2.896,3.168,211,16.23,16.78,0.2881036,0,51.05,58.61,33.56,35.36
"2016-10-09 21:20:00",256797,0.231,137.7,7.295,100,0,0,865.4483,0,-2.946,3.168,232,16.11,16.79,0.2350319,0,51.05,58.61,33.56,35.36
"2016-10-09 21:30:00",256798,0.022,38.04,7.173,100,0,0,865.4694,0,-2.718,3.166,206,16.12,16.79,0.1781693,0,51.05,58.61,33.56,35.36
"2016-10-09 21:40:00",256799,0.131,43.8,7.258,100,0,0,865.718,0,-2.946,3.168,207,16.17,16.79,0.3828745,0,51.05,58.61,33.56,35.36
"2016-10-09 21:50:00",256800,0.252,74.77,7.269,100,0,0,865.8422,0,-2.993,3.167,211,16.16,16.78,0.416992,0,50.99,58.56,33.54,35.35
"2016-10-09 22:00:00",256801,0.303,48.52,7.187,100,0.007863254,0,865.6779,0,-2.519,3.165,213,16.03,16.79,0.1326793,0.016,51.05,58.56,33.56,35.35
"2016-10-09 22:10:00",256802,0.164,337.5,6.955,100,0,0,865.8823,0,-2.469,3.165,218,16.02,16.8,0.09477091,0,51.05,58.56,33.56,35.35
"2016-10-09 22:20:00",256803,0.147,318.8,6.831,100,0,0,865.7938,0,-2.698,3.168,206,16.03,16.8,0.09098008,0,50.99,58.56,33.54,35.35
"2016-10-09 22:30:00",256804,0.059,106.7,6.879,100,0,0,865.7285,0,-2.011,3.16,217,16.07,16.8,0.2198685,0,51.05,58.5,33.56,35.33
"2016-10-09 22:40:00",256805,0.117,8.9,6.8,100,0,0,865.7221,0,-2.192,3.163,216,16.06,16.8,0.2122868,0,50.99,58.5,33.54,35.33
"2016-10-09 22:50:00",256806,0.206,343,6.827,100,0,0,865.7686,0,-2.115,3.162,215,15.96,16.8,0.3222211,0,50.99,58.5,33.54,35.33
"2016-10-09 23:00:00",256807,0.193,50.2,6.845,100,0,0,865.7221,0,-1.937,3.16,221,15.93,16.8,0.2350319,0,50.99,58.44,33.54,35.32
"2016-10-09 23:10:00",256808,0.122,291.5,6.772,100,0,0,865.7369,0,-1.636,3.158,224,15.95,16.8,0.2501952,0,50.99,58.44,33.54,35.32
"2016-10-09 23:20:00",256809,0.287,22.64,6.623,100,0,0,865.8613,0,-1.863,3.16,214,15.98,16.77,0.1364701,0,50.99,58.44,33.54,35.32
"2016-10-09 23:30:00",256810,0.335,285.4,6.631,100,0,0,865.9982,0,-2.347,3.166,207,16,16.73,0.4056195,0,50.99,58.44,33.54,35.32
"2016-10-09 23:40:00",256811,0.307,10.41,6.491,100,0,0,866.1162,0,-2.144,3.164,203,15.97,16.7,0.1099343,0,50.99,58.44,33.54,35.32
"2016-10-09 23:50:00",256812,0.157,75.85,6.547,100,0,0,866.1351,0,-2.295,3.165,193,15.86,16.71,0.4321553,0,50.99,58.38,33.54,35.31
